Erzurum Bolge, Turkey

7:52 PM +03 on January 24, 2017 (GMT +0300)
Erzurum

Weather History for LTCE - February, 2014

Change the Weather History Date:

Tuesday, February 25, 2014

  Actual Average Record
Temperature  
Mean Temperature 34 °F -  
Max Temperature 45 °F 36 °F 45 °F (2014)
Min Temperature 24 °F 20 °F -22 °F (2012)
Degree Days  
Heating Degree Days 30    
Moisture  
Dew Point 27 °F    
Average Humidity 69    
Maximum Humidity 100    
Minimum Humidity 41    
Precipitation  
Precipitation 0.00 in 0.04 in - ()
Sea Level Pressure  
Sea Level Pressure 30.09 in    
Wind  
Wind Speed 11 mph ()    
Max Wind Speed 23 mph    
Max Gust Speed -    
Visibility 7.2 miles    
Events Snow    
Averages and records for this station are not official NWS values.
T = Trace of Precipitation, MM = Missing Value Source: Averaged Metar Reports

Daily Weather History Graph

Daily Weather History Graph

Search for Another Location

Airport or City:

Trip Planner

Search our weather history database for the weather conditions in past years. The results will help you decide how hot, cold, wet, or windy it might be!

Date:

Astronomy

Feb. 25, 2014 Rise Set
Actual Time 5:54 AM EET 5:02 PM EET
Civil Twilight 5:27 AM EET 5:29 PM EET
Nautical Twilight 4:56 AM EET 6:01 PM EET
Astronomical Twilight 4:25 AM EET 6:32 PM EET
Moon 2:29 AM EET (2/25) 12:44 PM EET (2/25)
Length of Visible Light 12h 02m
Length of Day
11h 07m
Waning Crescent, 21% of the Moon is Illuminated
Feb 25
Waning Crescent
Mar 1
New
Mar 8
First Quarter
Mar 16
Full
Mar 24
Last Quarter

Hourly Weather History & Observations

Time (EET) Temp. Windchill Dew Point Humidity Pressure Visibility Wind Dir Wind Speed Gust Speed Precip Events Conditions
12:20 AM 28.4 °F 23.3 °F 28.4 °F 100% 30.15 in - SSW 4.6 mph - N/A   Clear
12:50 AM 26.6 °F - 26.6 °F 100% 30.15 in - Variable 2.3 mph - N/A   Clear
1:20 AM 26.6 °F 22.6 °F 26.6 °F 100% 30.15 in - Variable 3.5 mph - N/A   Clear
1:50 AM 26.6 °F - 24.8 °F 93% 30.12 in - Variable 2.3 mph - N/A   Clear
2:00 AM 26 °F - 26 °F 99%  in 12 mi SSW 2.3 mph - -  
2:20 AM 26.6 °F 22.6 °F 24.8 °F 93% 30.12 in - WNW 3.5 mph - N/A   Clear
2:50 AM 28.4 °F 24.6 °F 26.6 °F 93% 30.12 in - NNE 3.5 mph - N/A   Clear
3:20 AM 32.0 °F 23.6 °F 28.4 °F 87% 30.12 in - ENE 10.4 mph - N/A   Clear
3:50 AM 32.0 °F 22.5 °F 26.6 °F 80% 30.12 in - East 12.7 mph - N/A   Clear
4:20 AM 33.8 °F 22.2 °F 26.6 °F 75% 30.09 in - East 20.7 mph - N/A   Clear
4:50 AM 33.8 °F 22.5 °F 26.6 °F 75% 30.09 in - ESE 19.6 mph - N/A   Clear
5:00 AM 33 °F - 26 °F 65%  in 6 mi ESE 19.6 mph - -  
5:20 AM 33.8 °F 21.6 °F 26.6 °F 75% 30.09 in - East 23.0 mph - N/A   Clear
5:50 AM 32.0 °F 27.5 °F 26.6 °F 80% 30.12 in - Variable 4.6 mph - N/A   Clear
6:20 AM 30.2 °F 17.8 °F 26.6 °F 86% 30.12 in - East 19.6 mph - N/A   Clear
6:50 AM 30.2 °F 17.4 °F 26.6 °F 86% 30.12 in - ENE 20.7 mph - N/A   Clear
7:20 AM 33.8 °F 22.8 °F 28.4 °F 81% 30.15 in - East 18.4 mph - N/A   Clear
7:50 AM 33.8 °F 22.2 °F 28.4 °F 81% 30.15 in - ENE 20.7 mph - N/A   Clear
8:00 AM 33 °F - 27 °F 72%  in 12 mi ENE 20.7 mph - -   Partly Cloudy
8:20 AM 35.6 °F 24.8 °F 26.6 °F 70% 30.12 in - ENE 19.6 mph - N/A   Clear
8:50 AM 33.8 °F 21.9 °F 26.6 °F 75% 30.12 in - ENE 21.9 mph - N/A   Clear
9:20 AM 35.6 °F 24.5 °F 28.4 °F 75% 30.12 in 6.2 mi ENE 20.7 mph - N/A   Scattered Clouds
9:50 AM 37.4 °F 27.5 °F 28.4 °F 70% 30.12 in 6.2 mi ENE 18.4 mph - N/A   Scattered Clouds
10:20 AM 37.4 °F 26.6 °F 28.4 °F 70% 30.12 in 6.2 mi East 21.9 mph - N/A   Scattered Clouds
10:50 AM 39.2 °F 29.3 °F 26.6 °F 61% 30.12 in 6.2 mi East 20.7 mph - N/A   Scattered Clouds
11:00 AM 40 °F - 29 °F 55%  in 12 mi East 20.7 mph - -   Partly Cloudy
11:20 AM 41.0 °F 31.6 °F 30.2 °F 65% 30.09 in 6.2 mi ENE 20.7 mph - N/A   Scattered Clouds
11:50 AM 42.8 °F 34.8 °F 28.4 °F 57% 30.09 in 6.2 mi East 17.3 mph - N/A   Scattered Clouds
12:20 PM 44.6 °F 37.4 °F 28.4 °F 53% 30.09 in 6.2 mi East 16.1 mph - N/A   Scattered Clouds
12:50 PM 44.6 °F 37.2 °F 28.4 °F 53% 30.09 in 6.2 mi East 17.3 mph - N/A   Scattered Clouds
1:20 PM 42.8 °F 35.8 °F 30.2 °F 61% 30.09 in 6.2 mi East 13.8 mph - N/A   Mostly Cloudy
1:50 PM 42.8 °F 35.1 °F 28.4 °F 57% 30.09 in 6.2 mi East 16.1 mph - N/A   Mostly Cloudy
2:00 PM 43 °F - 29 °F 45%  in 12 mi East 16.1 mph - -   Partly Cloudy
2:20 PM 44.6 °F 38.1 °F 28.4 °F 53% 30.06 in 6.2 mi East 13.8 mph - N/A   Mostly Cloudy
2:50 PM 44.6 °F 38.4 °F 28.4 °F 53% 30.06 in 6.2 mi East 12.7 mph - N/A   Mostly Cloudy
3:20 PM 44.6 °F 38.1 °F 26.6 °F 49% 30.06 in 6.2 mi East 13.8 mph - N/A   Mostly Cloudy
3:50 PM 42.8 °F 35.8 °F 28.4 °F 57% 30.06 in 6.2 mi ESE 13.8 mph - N/A   Mostly Cloudy
4:20 PM 42.8 °F 35.8 °F 26.6 °F 53% 30.06 in 6.2 mi East 13.8 mph - N/A   Mostly Cloudy
4:50 PM 41.0 °F 33.9 °F 28.4 °F 61% 30.06 in 6.2 mi East 12.7 mph - N/A   Mostly Cloudy
5:00 PM 42 °F - 26 °F 41%  in 12 mi East 12.7 mph - -   Partly Cloudy
5:20 PM 39.2 °F 31.2 °F 26.6 °F 61% 30.06 in 6.2 mi East 13.8 mph - N/A   Mostly Cloudy
5:50 PM 39.2 °F 31.2 °F 26.6 °F 61% 30.06 in 6.2 mi East 13.8 mph - N/A   Mostly Cloudy
6:20 PM 39.2 °F 30.8 °F 26.6 °F 61% 30.06 in 6.2 mi ENE 15.0 mph - N/A   Mostly Cloudy
6:50 PM 39.2 °F 31.2 °F 26.6 °F 61% 30.06 in 6.2 mi ENE 13.8 mph - N/A   Scattered Clouds
7:20 PM 37.4 °F 31.4 °F 26.6 °F 65% 30.06 in 6.2 mi ENE 8.1 mph - N/A   Scattered Clouds
7:50 PM 37.4 °F 32.8 °F 26.6 °F 65% 30.06 in 6.2 mi ESE 5.8 mph - N/A   Scattered Clouds
8:00 PM 38 °F - 26 °F 51%  in 12 mi ESE 5.8 mph - -   Partly Cloudy
8:20 PM 37.4 °F 30.3 °F 26.6 °F 65% 30.06 in 6.2 mi NNE 10.4 mph - N/A   Scattered Clouds
8:50 PM 37.4 °F 31.4 °F 26.6 °F 65% 30.06 in 6.2 mi ENE 8.1 mph - N/A   Scattered Clouds
9:20 PM 37.4 °F 33.8 °F 26.6 °F 65% 30.06 in 6.2 mi Variable 4.6 mph - N/A   Scattered Clouds
9:50 PM 39.2 °F 31.2 °F 26.6 °F 61% 30.04 in 6.2 mi East 13.8 mph - N/A   Scattered Clouds
10:20 PM 39.2 °F 31.2 °F 26.6 °F 61% 30.04 in 6.2 mi East 13.8 mph - N/A   Scattered Clouds
10:38 PM 37.4 °F 28.5 °F 26.6 °F 65% 30.04 in 6.2 mi East 15.0 mph - N/A Snow Light Snow
10:50 PM 37.4 °F 28.5 °F 26.6 °F 65% 30.04 in 6.2 mi East 15.0 mph - N/A Snow Light Snow
11:00 PM 38 °F - 27 °F 52%  in 12 mi East 15.0 mph - - Snow Light Snow
11:20 PM 39.2 °F 30.8 °F 26.6 °F 61% 30.04 in 6.2 mi East 15.0 mph - N/A   Unknown
11:50 PM 37.4 °F 28.5 °F 28.4 °F 70% 30.04 in 6.2 mi East 15.0 mph - N/A Snow Light Snow